Погода в Триполье

Украина / Киевская область     50°06′57″N   30°46′13″E
темп.,
°C
ветер,
м/с
пор.,
м/с
влажн.,
%
обл.,
%
осадки,
мм/ч
давл.,
гПа
погр.,
м
7 мая, пт
пт700:00+7з335999 0.0 101338
03:00+7зюз225518 0.0 101414
06:00+5ююз3375100 0.0 101431
09:00+11ю4563100 0.0 1014357
12:00+15ю6852100 0.0 10121614
15:00+15ю71166100 0.1 10101147
18:00+15ю71279100 0.8 1007822
21:00+12ю3898100 8.5 1007422
8 мая, сб
сб800:00+12ююз41198100 8.1 1006577
03:00+11юз5997100 11.7 1004485
06:00+10зсз61194100 5.8 1006626
09:00+7зсз81388100 5.8 1010743
12:00+9з812705 0.1 10121379
15:00+9з9136174 0.1 10141762
18:00+6зсз8118448 0.1 1015932
21:00+5з49805 0.1 1017294
9 мая, вс
вс900:00+5зсз512845 0.0 1019387
03:00+3зсз411880 0.0 1021256
06:00+2зсз410900 0.0 1023208
09:00+8зсз57690 0.0 1025637
12:00+12сз575677 0.0 10251877
15:00+12сз465699 0.1 10251760
18:00+13сз244961 0.0 10261544
21:00+10ююз116255 0.0 102714
10 мая, пн
пн1000:00+6ю22745 0.0 102810
03:00+5юв22765 0.0 102911
06:00+5юв22794 0.0 103019
09:00+11юв34635 0.0 1030423
12:00+14в22500 0.0 10301270
15:00+16всв33450 0.0 10291457
18:00+15всв34560 0.0 10281144
21:00+9в33730 0.0 102927
11 мая, вт
вт1100:00+8всв22770 0.0 102911
03:00+6св33820 0.0 102824
06:00+6св34860 0.0 102860
09:00+11всв47670 0.0 1027477
12:00+15всв56520 0.0 1026930
15:00+17всв45490 0.0 10241084
18:00+17всв45610 0.0 10241022
21:00+11всв3482100 0.0 102345